When you browse on this site, cookies collect data to enhance your experience and personalize the content and advertising you see.
Visit our Privacy Policy to learn more. By continuing to use the site, you agree to this use of cookies and data.
  • In Czech Republic
  • List of Countries
  • For 7 days
  • Water Temperature
  • Satellite Maps
  • Weather Map
  • Weather Widgets
  • user-avatar
    Login

    Hourly Weather Gjirokaster

    Today, 14 December, Friday

    Time Temperature Precipitation Wind Pressure Humidity
    00:00 -2°C° 0.2 mm 4 mps 648 mmHg 90%
    01:00 -1°C° 0 mm 5 mps 648 mmHg 90%
    02:00 -1°C° 0.2 mm 5 mps 648 mmHg 91%
    03:00 -1°C° 0.2 mm 5 mps 648 mmHg 93%
    04:00 -1°C° 0.2 mm 4 mps 648 mmHg 94%
    05:00 0°C° 0.1 mm 4 mps 648 mmHg 94%
    06:00 0°C° 0.1 mm 5 mps 648 mmHg 94%
    07:00 0°C° 0 mm 5 mps 648 mmHg 94%
    08:00 +1°C° 0.1 mm 5 mps 648 mmHg 92%
    09:00 +2°C° 0.1 mm 5 mps 649 mmHg 90%
    10:00 +2°C° 0.1 mm 5 mps 649 mmHg 88%
    11:00 +3°C° 0.3 mm 5 mps 649 mmHg 87%
    12:00 +3°C° 0.3 mm 6 mps 649 mmHg 87%
    13:00 +4°C° 0.3 mm 6 mps 649 mmHg 86%
    14:00 +3°C° 0.4 mm 6 mps 649 mmHg 88%
    15:00 +3°C° 0.4 mm 5 mps 649 mmHg 89%
    16:00 +3°C° 0.4 mm 5 mps 648 mmHg 90%
    17:00 +2°C° 0.3 mm 5 mps 648 mmHg 91%
    18:00 +2°C° 0.3 mm 5 mps 649 mmHg 91%
    19:00 +2°C° 0.3 mm 5 mps 649 mmHg 91%
    20:00 +1°C° 0.1 mm 5 mps 648 mmHg 90%
    21:00 +1°C° 0.1 mm 5 mps 648 mmHg 89%
    22:00 +1°C° 0.1 mm 5 mps 648 mmHg 88%
    23:00 +1°C° 0.1 mm 5 mps 648 mmHg 87%

    Tomorrow, 15 December, Saturday

    Time Temperature Precipitation Wind Pressure Humidity
    00:00 +1°C° 0.1 mm 5 mps 648 mmHg 86%
    01:00 +1°C° 0.1 mm 5 mps 648 mmHg 85%
    02:00 +1°C° 0.3 mm 5 mps 648 mmHg 86%
    03:00 +1°C° 0.3 mm 5 mps 647 mmHg 86%
    04:00 +1°C° 0.3 mm 5 mps 647 mmHg 87%
    05:00 +1°C° 0.4 mm 5 mps 647 mmHg 88%
    06:00 +1°C° 0.4 mm 5 mps 647 mmHg 88%
    07:00 +1°C° 0.4 mm 5 mps 647 mmHg 89%
    08:00 +1°C° 0.4 mm 5 mps 647 mmHg 88%
    09:00 +2°C° 0.4 mm 5 mps 648 mmHg 86%
    10:00 +2°C° 0.4 mm 5 mps 648 mmHg 85%
    11:00 +3°C° 0.3 mm 5 mps 648 mmHg 82%
    12:00 +5°C° 0.3 mm 5 mps 648 mmHg 79%
    13:00 +5°C° 0.3 mm 5 mps 647 mmHg 76%
    14:00 +5°C° 0.4 mm 4 mps 647 mmHg 79%
    15:00 +4°C° 0.4 mm 4 mps 647 mmHg 82%
    16:00 +3°C° 0.4 mm 4 mps 647 mmHg 84%
    17:00 +3°C° 0.2 mm 3 mps 647 mmHg 84%
    18:00 +3°C° 0.2 mm 3 mps 647 mmHg 83%
    19:00 +2°C° 0.2 mm 3 mps 647 mmHg 83%
    20:00 +2°C° 0.7 mm 3 mps 647 mmHg 83%
    21:00 +3°C° 0.7 mm 2 mps 647 mmHg 84%
    22:00 +3°C° 0.7 mm 2 mps 647 mmHg 84%
    23:00 +2°C° 1.1 mm 3 mps 647 mmHg 86%

    Day after tomorrow, 16 December, Sunday

    Time Temperature Precipitation Wind Pressure Humidity
    00:00 +2°C° 1.1 mm 3 mps 647 mmHg 87%
    01:00 0°C° 1.1 mm 4 mps 647 mmHg 88%
    02:00 0°C° 1.2 mm 4 mps 647 mmHg 89%
    03:00 0°C° 1.2 mm 4 mps 647 mmHg 90%
    04:00 0°C° 1.2 mm 4 mps 647 mmHg 91%
    05:00 0°C° 0.4 mm 4 mps 647 mmHg 90%
    06:00 0°C° 0.4 mm 4 mps 647 mmHg 90%
    07:00 -1°C° 0.4 mm 5 mps 647 mmHg 90%
    08:00 0°C° 0.1 mm 5 mps 648 mmHg 88%
    09:00 0°C° 0.1 mm 5 mps 648 mmHg 86%
    10:00 0°C° 0.1 mm 5 mps 648 mmHg 84%
    11:00 0°C° 0 mm 5 mps 648 mmHg 82%
    12:00 0°C° 0 mm 5 mps 648 mmHg 80%
    13:00 +1°C° 0 mm 5 mps 648 mmHg 77%
    14:00 0°C° 0 mm 5 mps 648 mmHg 78%
    15:00 0°C° 0 mm 5 mps 649 mmHg 79%
    16:00 -1°C° 0 mm 5 mps 649 mmHg 80%
    17:00 -1°C° 0 mm 4 mps 649 mmHg 81%
    18:00 -2°C° 0 mm 4 mps 650 mmHg 83%
    19:00 -1°C° 0 mm 3 mps 650 mmHg 85%
    20:00 -2°C° 0 mm 3 mps 650 mmHg 85%
    21:00 -2°C° 0 mm 3 mps 650 mmHg 86%
    22:00 -2°C° 0 mm 3 mps 651 mmHg 86%
    23:00 -2°C° 0 mm 3 mps 651 mmHg 85%

    17 December, Monday

    Time Temperature Precipitation Wind Pressure Humidity
    00:00 -2°C° 0 mm 2 mps 651 mmHg 85%
    01:00 -2°C° 0 mm 2 mps 651 mmHg 84%
    02:00 -2°C° 0 mm 2 mps 650 mmHg 83%
    03:00 -1°C° 0 mm 2 mps 650 mmHg 82%
    04:00 +1°C° 0 mm 1 mps 650 mmHg 81%
    05:00 +1°C° 0 mm 1 mps 651 mmHg 80%
    06:00 +1°C° 0 mm 1 mps 651 mmHg 80%
    07:00 +2°C° 0 mm 1 mps 651 mmHg 79%
    08:00 +3°C° 0 mm 1 mps 651 mmHg 77%
    09:00 +4°C° 0 mm 1 mps 652 mmHg 75%
    10:00 +5°C° 0 mm 1 mps 652 mmHg 73%
    11:00 +5°C° 0 mm 1 mps 652 mmHg 74%
    12:00 +4°C° 0 mm 2 mps 652 mmHg 74%
    13:00 +4°C° 0 mm 2 mps 651 mmHg 74%
    14:00 +4°C° 0 mm 2 mps 651 mmHg 77%
    15:00 +3°C° 0 mm 2 mps 651 mmHg 81%
    16:00 +3°C° 0 mm 2 mps 651 mmHg 84%
    17:00 +1°C° 0 mm 3 mps 651 mmHg 85%
    18:00 +1°C° 0 mm 3 mps 651 mmHg 87%
    19:00 0°C° 0 mm 4 mps 651 mmHg 88%
    20:00 0°C° 0.2 mm 4 mps 650 mmHg 88%
    21:00 0°C° 0.2 mm 5 mps 650 mmHg 88%
    22:00 0°C° 0.2 mm 5 mps 650 mmHg 88%
    23:00 0°C° 1 mm 5 mps 650 mmHg 88%

    18 December, Tuesday

    Time Temperature Precipitation Wind Pressure Humidity
    00:00 0°C° 1 mm 5 mps 649 mmHg 88%
    01:00 0°C° 1 mm 5 mps 649 mmHg 88%
    02:00 0°C° 0.8 mm 5 mps 649 mmHg 88%
    03:00 0°C° 0.8 mm 5 mps 648 mmHg 88%
    04:00 0°C° 0.8 mm 4 mps 648 mmHg 87%
    05:00 0°C° 1.7 mm 4 mps 648 mmHg 89%
    06:00 +1°C° 1.7 mm 3 mps 648 mmHg 91%
    07:00 +1°C° 1.7 mm 3 mps 648 mmHg 92%
    08:00 +2°C° 1.5 mm 2 mps 648 mmHg 92%
    09:00 +2°C° 1.5 mm 2 mps 649 mmHg 91%
    10:00 +2°C° 1.5 mm 2 mps 649 mmHg 91%
    11:00 +2°C° 1.3 mm 2 mps 649 mmHg 90%
    12:00 +2°C° 1.3 mm 2 mps 649 mmHg 90%
    13:00 +1°C° 1.3 mm 3 mps 649 mmHg 89%
    14:00 +1°C° 0.3 mm 3 mps 649 mmHg 89%
    15:00 +1°C° 0.3 mm 3 mps 650 mmHg 89%
    16:00 +1°C° 0.3 mm 3 mps 650 mmHg 89%
    17:00 +1°C° 0 mm 3 mps 650 mmHg 89%
    18:00 0°C° 0 mm 4 mps 651 mmHg 88%
    19:00 -1°C° 0 mm 4 mps 651 mmHg 88%
    20:00 -1°C° 0 mm 4 mps 651 mmHg 87%
    21:00 -1°C° 0 mm 4 mps 652 mmHg 87%
    22:00 -2°C° 0 mm 4 mps 652 mmHg 86%
    23:00 -2°C° 0 mm 4 mps 652 mmHg 85%

    19 December, Wednesday

    Time Temperature Precipitation Wind Pressure Humidity
    00:00 -1°C° 0 mm 3 mps 652 mmHg 85%
    01:00 -1°C° 0 mm 3 mps 652 mmHg 84%
    02:00 -2°C° 0 mm 3 mps 652 mmHg 84%
    03:00 -2°C° 0 mm 3 mps 652 mmHg 84%
    04:00 -2°C° 0 mm 3 mps 652 mmHg 83%
    05:00 -2°C° 0 mm 3 mps 653 mmHg 83%
    06:00 -2°C° 0 mm 3 mps 653 mmHg 83%
    07:00 -2°C° 0 mm 3 mps 653 mmHg 83%
    08:00 -1°C° 0 mm 3 mps 653 mmHg 79%
    09:00 +2°C° 0 mm 2 mps 654 mmHg 75%
    10:00 +4°C° 0 mm 2 mps 655 mmHg 71%
    11:00 +5°C° 0 mm 2 mps 654 mmHg 68%
    12:00 +5°C° 0 mm 2 mps 654 mmHg 66%
    13:00 +6°C° 0 mm 2 mps 654 mmHg 63%
    14:00 +5°C° 0 mm 2 mps 654 mmHg 67%
    15:00 +4°C° 0 mm 2 mps 654 mmHg 71%
    16:00 +3°C° 0 mm 2 mps 654 mmHg 75%
    17:00 +2°C° 0 mm 2 mps 654 mmHg 77%
    18:00 +2°C° 0 mm 2 mps 654 mmHg 78%
    19:00 +2°C° 0 mm 1 mps 654 mmHg 80%
    20:00 +2°C° 0 mm 1 mps 654 mmHg 80%
    21:00 +2°C° 0 mm 1 mps 654 mmHg 81%
    22:00 +2°C° 0 mm 1 mps 654 mmHg 82%
    23:00 +2°C° 0 mm 1 mps 654 mmHg 83%
    Show more